K9BM Weather Reports


time (UTC)temp
C
wind
direction
speed
KPH
gust
KPH
rain 1hr
cm
rain 24hr
cm
rain mn
cm
humidity
%
barometer
mb
20260502195505 20 285 16.1 27.4 0.00 0.00 0.00 21 1011.4
20260502195005 20 273 16.1 29.0 0.00 0.00 0.00 20 1011.5
20260502194505 20 242 19.3 29.0 0.00 0.00 0.00 19 1011.5
20260502194005 20 244 16.1 25.7 0.00 0.00 0.00 20 1011.6
20260502193504 20 247 14.5 20.9 0.00 0.00 0.00 21 1011.6
20260502193005 21 277 9.7 32.2 0.00 0.00 0.00 19 1011.8
20260502192005 20 252 12.9 24.1 0.00 0.00 0.00 19 1012.0
20260502191505 20 292 12.9 24.1 0.00 0.00 0.00 20 1012.0
20260502190005 20 329 11.3 25.7 0.00 0.00 0.00 22 1012.2
20260502185505 20 330 14.5 25.7 0.00 0.00 0.00 20 1012.2
20260502185005 20 309 9.7 25.7 0.00 0.00 0.00 23 1012.4
20260502184505 20 332 11.3 25.7 0.00 0.00 0.00 22 1012.5
20260502184006 20 338 8.0 22.5 0.00 0.00 0.00 22 1012.5
20260502182505 19 0 4.8 16.1 0.00 0.00 0.00 24 1012.6
20260502182005 18 36 3.2 20.9 0.00 0.00 0.00 26 1012.7
20260502181005 18 6 8.0 20.9 0.00 0.00 0.00 26 1012.8
20260502164005 17 285 4.8 12.9 0.00 0.00 0.00 28 1013.5
20260502163505 16 328 6.4 16.1 0.00 0.00 0.00 29 1013.6
20260502163005 16 1 6.4 16.1 0.00 0.00 0.00 30 1013.7
20260502162505 16 1 9.7 14.5 0.00 0.00 0.00 31 1013.7
20260502162005 16 5 8.0 14.5 0.00 0.00 0.00 31 1013.8
20260502161504 15 358 4.8 19.3 0.00 0.00 0.00 30 1013.8
20260502161005 15 16 8.0 19.3 0.00 0.00 0.00 29 1013.7
20260502152005 14 324 14.5 20.9 0.00 0.00 0.00 32 1014.1
20260502151505 13 331 14.5 20.9 0.00 0.00 0.00 33 1014.1
20260502151005 13 325 16.1 19.3 0.00 0.00 0.00 34 1014.1
20260502123505 7 231 9.7 25.7 0.00 0.00 0.00 41 1013.6
20260502123004 6 222 6.4 14.5 0.00 0.00 0.00 44 1013.6
20260502122505 6 231 9.7 14.5 0.00 0.00 0.00 44 1013.6
20260502122005 6 230 8.0 9.7 0.00 0.00 0.00 43 1013.6
20260502121005 7 208 4.8 19.3 0.00 0.00 0.00 39 1013.6
20260502115505 8 256 12.9 19.3 0.00 0.00 0.00 38 1013.5
20260502114504 7 247 14.5 19.3 0.00 0.00 0.00 40 1013.5
20260502114005 7 239 11.3 16.1 0.00 0.00 0.00 40 1013.4
20260502113504 7 241 11.3 16.1 0.00 0.00 0.00 40 1013.4
20260502113005 7 230 11.3 16.1 0.00 0.00 0.00 40 1013.5
20260502112505 7 242 11.3 19.3 0.00 0.00 0.00 39 1013.4
20260502112004 7 239 12.9 19.3 0.00 0.00 0.00 39 1013.4
20260502111505 8 236 11.3 19.3 0.00 0.00 0.00 38 1013.5
20260502110005 8 248 12.9 19.3 0.00 0.00 0.00 37 1013.5
20260502105505 8 235 11.3 19.3 0.00 0.00 0.00 37 1013.5
20260502105005 8 237 12.9 19.3 0.00 0.00 0.00 38 1013.5
20260502104504 7 232 11.3 16.1 0.00 0.00 0.00 38 1013.4
20260502104004 7 233 9.7 16.1 0.00 0.00 0.00 39 1013.4
20260502103505 7 228 9.7 14.5 0.00 0.00 0.00 40 1013.4
20260502103005 7 238 11.3 14.5 0.00 0.00 0.00 40 1013.4
20260502102004 7 236 9.7 12.9 0.00 0.00 0.00 39 1013.3
20260502101504 7 241 9.7 14.5 0.00 0.00 0.00 38 1013.3
20260502101005 7 237 9.7 14.5 0.00 0.00 0.00 38 1013.4
20260502091505 8 232 14.5 19.3 0.00 0.00 0.00 35 1013.3
20260502091005 8 234 11.3 19.3 0.00 0.00 0.00 35 1013.3
20260502071504 9 231 11.3 19.3 0.00 0.00 0.00 32 1014.0
20260502071004 10 233 14.5 19.3 0.00 0.00 0.00 31 1013.9
20260502070004 10 229 14.5 22.5 0.00 0.00 0.00 31 1014.0
20260502065504 10 229 14.5 22.5 0.00 0.00 0.00 32 1014.0
20260502065004 9 232 14.5 19.3 0.00 0.00 0.00 32 1014.0
20260502064504 9 225 11.3 19.3 0.00 0.00 0.00 32 1014.0
20260502064004 9 229 11.3 19.3 0.00 0.00 0.00 32 1014.0
20260502063505 9 223 12.9 19.3 0.00 0.00 0.00 32 1013.9
20260502063004 9 207 11.3 20.9 0.00 0.00 0.00 32 1013.9
20260502062505 9 220 12.9 20.9 0.00 0.00 0.00 32 1013.9
20260502062004 9 217 14.5 22.5 0.00 0.00 0.00 32 1013.9
20260502061504 10 214 14.5 22.5 0.00 0.00 0.00 32 1014.0
20260502061005 10 225 12.9 19.3 0.00 0.00 0.00 31 1014.0
20260502060005 10 214 11.3 19.3 0.00 0.00 0.00 31 1014.0
20260502055005 10 218 11.3 19.3 0.00 0.00 0.00 30 1014.1
20260502054504 10 217 11.3 19.3 0.00 0.00 0.00 31 1014.1
20260502054005 10 209 11.3 24.1 0.00 0.00 0.00 31 1014.1
20260502053505 10 208 11.3 24.1 0.00 0.00 0.00 30 1014.1
20260502053004 10 205 14.5 22.5 0.00 0.00 0.00 30 1014.0
20260502052504 10 211 11.3 19.3 0.00 0.00 0.00 30 1014.1
20260502052005 10 209 11.3 19.3 0.00 0.00 0.00 30 1014.0
20260502050004 10 208 14.5 22.5 0.00 0.00 0.00 31 1014.1
20260502045504 10 206 14.5 20.9 0.00 0.00 0.00 31 1014.1
20260502045004 10 203 16.1 22.5 0.00 0.00 0.00 31 1014.2
20260502044504 10 203 16.1 22.5 0.00 0.00 0.00 31 1014.2
20260502044004 10 202 14.5 24.1 0.00 0.00 0.00 30 1014.3
20260502043504 11 203 16.1 24.1 0.00 0.00 0.00 30 1014.3
20260502043005 11 202 14.5 22.5 0.00 0.00 0.00 30 1014.4
20260502041504 11 206 14.5 20.9 0.00 0.00 0.00 29 1014.4
20260502041005 11 201 14.5 25.7 0.00 0.00 0.00 29 1014.4
20260502040004 11 202 14.5 20.9 0.00 0.00 0.00 29 1014.3
20260502035504 11 198 16.1 20.9 0.00 0.00 0.00 28 1014.2
20260502034504 12 200 14.5 19.3 0.00 0.00 0.00 29 1014.2
20260502034004 12 204 12.9 19.3 0.00 0.00 0.00 28 1014.2
20260502033504 12 198 12.9 19.3 0.00 0.00 0.00 27 1014.2
20260502032504 12 195 16.1 19.3 0.00 0.00 0.00 26 1014.1
20260502032004 12 201 12.9 14.5 0.00 0.00 0.00 26 1014.1
20260502031504 13 200 11.3 14.5 0.00 0.00 0.00 25 1014.1
20260502031004 13 200 6.4 14.5 0.00 0.00 0.00 25 1014.1
20260502030004 14 233 6.4 14.5 0.00 0.00 0.00 23 1013.9
20260502025504 15 244 9.7 14.5 0.00 0.00 0.00 22 1013.9
20260502025005 15 262 9.7 14.5 0.00 0.00 0.00 21 1013.8
20260502024504 15 246 11.3 14.5 0.00 0.00 0.00 21 1013.8
20260502024004 15 249 9.7 14.5 0.00 0.00 0.00 21 1013.7
20260502023504 16 282 9.7 16.1 0.00 0.00 0.00 21 1013.7
20260502023005 16 279 11.3 16.1 0.00 0.00 0.00 20 1013.7
20260502022504 16 282 11.3 16.1 0.00 0.00 0.00 20 1013.7
20260502022004 16 278 11.3 16.1 0.00 0.00 0.00 20 1013.8
20260502021004 16 262 11.3 16.1 0.00 0.00 0.00 19 1013.7
20260502020004 17 254 11.3 19.3 0.00 0.00 0.00 19 1013.7
20260502015504 17 262 11.3 19.3 0.00 0.00 0.00 18 1013.7
20260502015004 17 260 14.5 19.3 0.00 0.00 0.00 19 1013.7
20260502014504 17 261 14.5 19.3 0.00 0.00 0.00 18 1013.7
20260502013504 18 254 16.1 22.5 0.00 0.00 0.00 18 1013.7
20260502013005 18 245 9.7 22.5 0.00 0.00 0.00 19 1013.7
20260502012004 18 261 16.1 20.9 0.00 0.00 0.00 17 1013.7
20260502011505 18 261 9.7 19.3 0.00 0.00 0.00 18 1013.7
20260502011004 18 265 11.3 19.3 0.00 0.00 0.00 17 1013.6
20260502005504 19 268 14.5 22.5 0.00 0.00 0.00 18 1013.7
20260502004503 19 247 14.5 19.3 0.00 0.00 0.00 16 1013.7
20260502004004 19 263 14.5 19.3 0.00 0.00 0.00 17 1013.7
20260502003504 19 256 12.9 24.1 0.00 0.00 0.00 18 1013.7
20260502003004 19 256 14.5 24.1 0.00 0.00 0.00 17 1013.7
20260502002504 20 252 14.5 24.1 0.00 0.00 0.00 18 1013.7
20260502002004 20 233 8.0 14.5 0.00 0.00 0.00 17 1013.8
20260502001504 19 237 8.0 19.3 0.00 0.00 0.00 18 1013.8
20260502001004 20 247 14.5 20.9 0.00 0.00 0.00 17 1013.9
20260502000004 20 281 16.1 19.3 0.00 0.00 0.00 18 1013.9
20260501235504 20 277 9.7 14.5 0.00 0.00 0.00 18 1014.0
20260501235004 20 292 8.0 16.1 0.00 0.00 0.00 18 1014.1
20260501234504 20 260 9.7 20.9 0.00 0.00 0.00 17 1014.2
20260501234004 20 286 12.9 20.9 0.00 0.00 0.00 18 1014.2
20260501233506 20 281 9.7 19.3 0.00 0.00 0.00 19 1014.3
20260501233006 19 272 8.0 22.5 0.00 0.00 0.00 19 1014.3
20260501232506 19 253 11.3 22.5 0.00 0.00 0.00 18 1014.3
20260501232006 20 266 14.5 20.9 0.00 0.00 0.00 17 1014.3
20260501231506 20 264 11.3 19.3 0.00 0.00 0.00 17 1014.4
20260501231006 20 280 14.5 19.3 0.00 0.00 0.00 18 1014.4
20260501230006 19 273 11.3 25.7 0.00 0.00 0.00 19 1014.4
20260501225506 19 239 11.3 25.7 0.00 0.00 0.00 19 1014.4
20260501225006 20 257 16.1 22.5 0.00 0.00 0.00 19 1014.5
20260501224506 19 272 4.8 24.1 0.00 0.00 0.00 17 1014.5
20260501224006 19 276 16.1 24.1 0.00 0.00 0.00 18 1014.6
20260501223506 19 253 19.3 24.1 0.00 0.00 0.00 19 1014.6
20260501223006 19 233 9.7 22.5 0.00 0.00 0.00 19 1014.6
20260501222505 19 288 11.3 25.7 0.00 0.00 0.00 17 1014.7
20260501222006 19 268 16.1 25.7 0.00 0.00 0.00 19 1014.8
20260501221506 19 301 16.1 25.7 0.00 0.00 0.00 20 1014.9
20260501221007 18 270 19.3 25.7 0.00 0.00 0.00 22 1014.9
20260501220006 19 291 14.5 24.1 0.00 0.00 0.00 22 1015.1
20260501215506 19 253 14.5 24.1 0.00 0.00 0.00 17 1015.2
20260501214506 19 264 11.3 20.9 0.00 0.00 0.00 20 1015.3
20260501214006 19 297 14.5 22.5 0.00 0.00 0.00 17 1015.4
20260501213507 18 261 16.1 22.5 0.00 0.00 0.00 20 1015.5
20260501212506 18 274 16.1 25.7 0.00 0.00 0.00 21 1015.6
20260501212006 18 261 16.1 29.0 0.00 0.00 0.00 21 1015.6
20260501211506 18 276 20.9 29.0 0.00 0.00 0.00 20 1015.6
20260501210006 18 320 11.3 25.7 0.00 0.00 0.00 22 1015.7
20260501205006 18 240 16.1 25.7 0.00 0.00 0.00 23 1015.8
20260501204506 18 252 11.3 27.4 0.00 0.00 0.00 23 1015.8
20260501204006 18 288 20.9 27.4 0.00 0.00 0.00 23 1015.8
20260501203506 18 276 17.7 25.7 0.00 0.00 0.00 22 1015.8
20260501203006 18 266 14.5 25.7 0.00 0.00 0.00 26 1015.8
20260501202506 18 271 20.9 29.0 0.00 0.00 0.00 24 1015.8
20260501202006 17 275 16.1 32.2 0.00 0.00 0.00 22 1015.9
20260501201006 17 282 20.9 32.2 0.00 0.00 0.00 25 1016.0